Location: Manchester NH
(43.0000°N, 71.5000°W)
Time: 13:55:48
(UTC-04:00)

Envisat - Pass Details

Date: 20 April 2019
Orbit: 764 x 766 km, 98.2° (Epoch: 24 May)

Event Time Altitude Azimuth Distance (km) Brightness Sun altitude
Rises 20:01:11 0° 191° (S) 3,219 6.1 -5.5°
Reaches altitude 10° 20:03:41 10° 201° (SSW) 2,297 5.5 -5.9°
Maximum altitude 20:08:13 33° 264° (W) 1,281 4.9 -6.7°
Drops below altitude 10° 20:12:47 10° 328° (NNW) 2,312 6.5 -7.5°
Sets 20:15:20 0° 338° (NNW) 3,243 7.0 -7.9°
